FW0878 Weather Reports


time (UTC)temp
C
wind
direction
speed
KPH
gust
KPH
rain 1hr
cm
rain 24hr
cm
rain mn
cm
humidity
%
barometer
mb
20260504020307 19 20 9.7 20.9 0.00 0.00 0.00 50 1010.0
20260504015307 18 336 9.7 19.3 0.00 0.00 0.00 52 1010.2
20260504014807 18 177 4.8 19.3 0.00 0.00 0.00 52 1010.2
20260504014308 18 337 6.4 32.2 0.00 0.00 0.00 52 1010.3
20260504013807 18 43 11.3 32.2 0.00 0.00 0.00 53 1010.3
20260504012308 18 230 8.0 27.4 0.00 0.00 0.00 54 1010.4
20260504011806 18 250 9.7 20.9 0.00 0.00 0.00 54 1010.5
20260504011308 17 271 9.7 25.7 0.00 0.00 0.00 55 1010.4
20260504010807 18 317 8.0 16.1 0.00 0.00 0.00 54 1010.4
20260504010308 18 18 8.0 19.3 0.00 0.00 0.00 55 1010.5
20260504005808 18 20 4.8 16.1 0.00 0.00 0.00 55 1010.6
20260504005307 17 183 8.0 20.9 0.00 0.00 0.00 56 1010.6
20260504004808 17 338 9.7 19.3 0.00 0.00 0.00 56 1010.4
20260504004307 17 41 8.0 20.9 0.00 0.00 0.00 57 1010.6
20260504003806 17 291 8.0 24.1 0.00 0.00 0.00 57 1010.6
20260504003307 17 227 11.3 20.9 0.00 0.00 0.00 57 1010.6
20260504002807 17 20 8.0 16.1 0.00 0.00 0.00 57 1010.8
20260504002307 17 292 4.8 22.5 0.00 0.00 0.00 57 1010.7
20260504001806 17 205 9.7 19.3 0.00 0.00 0.00 57 1010.8
20260504001308 17 0 4.8 16.1 0.00 0.00 0.00 58 1010.9
20260504000808 17 320 8.0 20.9 0.00 0.00 0.00 59 1010.8
20260504000306 17 338 6.4 20.9 0.00 0.00 0.00 60 1010.7
20260503235308 17 336 9.7 20.9 0.00 0.08 0.00 59 1010.8
20260503234807 17 250 8.0 20.9 0.00 0.13 0.00 59 1010.8
20260503234307 17 202 8.0 24.1 0.00 0.15 0.00 60 1010.8
20260503233807 16 293 4.8 22.5 0.00 0.20 0.00 61 1010.9
20260503232808 16 337 8.0 20.9 0.00 0.25 0.00 63 1011.0
20260503232307 16 335 9.7 24.1 0.00 0.28 0.00 64 1011.0
20260503231806 16 274 8.0 16.1 0.00 0.28 0.00 64 1011.2
20260503231307 16 341 4.8 12.9 0.00 0.28 0.00 64 1011.2
20260503230807 16 5 4.8 14.5 0.00 0.28 0.00 65 1011.0
20260503230308 15 314 6.4 20.9 0.00 0.28 0.00 66 1011.1
20260503225807 15 314 4.8 12.9 0.00 0.28 0.28 66 1010.9
20260503225308 15 316 4.8 14.5 0.00 0.28 0.28 67 1011.0
20260503224807 15 340 8.0 16.1 0.00 0.28 0.28 67 1011.0
20260503224308 14 292 4.8 12.9 0.00 0.28 0.28 68 1011.2
20260503223806 15 45 3.2 12.9 0.00 0.28 0.28 68 1011.1
20260503223307 15 21 8.0 12.9 0.00 0.28 0.28 66 1011.2
20260503222808 15 316 4.8 9.7 0.00 0.28 0.28 68 1011.1
20260503222308 14 359 4.8 9.7 0.00 0.28 0.28 69 1011.0
20260503221807 13 2 3.2 9.7 0.00 0.28 0.28 71 1011.2
20260503221307 13 358 6.4 12.9 0.00 0.28 0.28 72 1011.2
20260503220808 13 20 3.2 9.7 0.00 0.28 0.28 73 1011.2
20260503220308 12 293 1.6 9.7 0.00 0.28 0.28 75 1011.3
20260503215807 12 0 4.8 9.7 0.00 0.28 0.28 76 1011.3
20260503215307 12 0 3.2 9.7 0.00 0.28 0.28 77 1011.3
20260503214307 12 22 3.2 4.8 0.00 0.28 0.28 78 1011.1
20260503213807 12 22 3.2 4.8 0.00 0.28 0.28 79 1011.1
20260503212807 12 338 1.6 9.7 0.00 0.28 0.28 80 1011.0
20260503211807 12 359 1.6 9.7 0.00 0.28 0.28 80 1011.0
20260503211308 12 21 3.2 9.7 0.00 0.28 0.28 80 1010.9
20260503210807 12 315 4.8 9.7 0.00 0.28 0.28 80 1010.7
20260503210307 12 72 4.8 12.9 0.00 0.28 0.28 80 1010.9
20260503205807 12 358 4.8 12.9 0.00 0.28 0.28 81 1011.0
20260503205308 12 338 4.8 11.3 0.00 0.28 0.28 81 1010.8
20260503204807 12 339 4.8 12.9 0.00 0.28 0.28 81 1010.7
20260503204308 12 273 4.8 14.5 0.00 0.28 0.28 81 1010.8
20260503203808 12 358 4.8 12.9 0.00 0.28 0.28 81 1010.8
20260503202308 12 339 3.2 14.5 0.00 0.28 0.28 80 1010.6
20260503201808 12 338 4.8 11.3 0.00 0.28 0.28 80 1010.8
20260503201307 12 358 4.8 11.3 0.00 0.28 0.28 80 1010.8
20260503200808 12 43 4.8 9.7 0.00 0.28 0.28 80 1010.8
20260503200308 12 315 6.4 11.3 0.00 0.28 0.28 80 1010.8
20260503195807 12 339 3.2 9.7 0.00 0.28 0.28 80 1010.5
20260503195308 12 358 4.8 12.9 0.00 0.28 0.28 80 1010.6
20260503194807 12 228 3.2 8.0 0.00 0.28 0.28 80 1010.6
20260503194307 12 251 1.6 9.7 0.00 0.28 0.28 80 1010.7
20260503193807 12 25 3.2 9.7 0.00 0.28 0.28 79 1010.6
20260503193308 12 21 4.8 11.3 0.00 0.28 0.28 79 1010.7
20260503192807 12 22 3.2 9.7 0.00 0.28 0.28 79 1010.9
20260503192308 12 22 4.8 11.3 0.00 0.28 0.28 79 1010.8
20260503191807 12 359 3.2 11.3 0.00 0.28 0.28 79 1010.9
20260503191308 12 22 3.2 11.3 0.00 0.28 0.28 79 1011.0
20260503190307 12 358 3.2 11.3 0.00 0.28 0.28 79 1011.0
20260503185807 12 336 4.8 12.9 0.00 0.28 0.28 79 1010.9
20260503185308 12 339 4.8 12.9 0.00 0.28 0.28 79 1011.0
20260503184807 12 20 3.2 12.9 0.00 0.28 0.28 80 1010.8
20260503184308 12 45 4.8 12.9 0.00 0.28 0.28 80 1010.8
20260503183807 12 317 4.8 14.5 0.00 0.28 0.28 80 1011.0
20260503182807 12 357 4.8 9.7 0.00 0.28 0.28 81 1011.1
20260503182307 12 67 3.2 8.0 0.00 0.28 0.28 81 1011.0
20260503181807 12 22 3.2 9.7 0.00 0.28 0.28 81 1011.0
20260503181308 12 21 4.8 11.3 0.00 0.28 0.28 82 1011.1
20260503180807 12 340 3.2 8.0 0.00 0.28 0.28 82 1011.1
20260503180306 12 23 3.2 9.7 0.00 0.28 0.28 81 1011.1
20260503175808 12 0 3.2 8.0 0.00 0.28 0.28 81 1011.1
20260503175308 12 293 4.8 9.7 0.00 0.28 0.28 81 1011.2
20260503174808 12 46 3.2 11.3 0.00 0.28 0.28 82 1011.2
20260503174308 12 357 4.8 12.9 0.00 0.28 0.28 82 1011.4
20260503173307 12 339 3.2 9.7 0.00 0.28 0.28 83 1011.4
20260503172807 12 339 4.8 9.7 0.00 0.28 0.28 83 1011.5
20260503172307 12 339 4.8 11.3 0.00 0.28 0.28 83 1011.5
20260503170808 12 21 4.8 12.9 0.00 0.28 0.28 83 1011.7
20260503170307 12 43 4.8 14.5 0.00 0.28 0.28 83 1011.7
20260503131308 13 21 1.6 4.8 0.00 0.28 0.28 80 1012.4
20260503130808 13 22 1.6 4.8 0.00 0.28 0.28 80 1012.3
20260503130307 13 316 1.6 3.2 0.00 0.28 0.28 80 1012.2
20260503110807 15 340 3.2 9.7 0.00 0.28 0.28 75 1012.4
20260503110308 15 340 3.2 4.8 0.00 0.28 0.28 75 1012.5
20260503090308 15 0 1.6 3.2 0.00 0.28 0.28 70 1011.7
20260503081308 15 317 0.0 3.2 0.00 0.28 0.28 66 1010.9
20260503080307 15 0 1.6 3.2 0.00 0.28 0.28 65 1011.1
20260503072807 16 300 1.6 9.7 0.00 0.28 0.28 60 1010.8
20260503071806 17 273 1.6 9.7 0.00 0.28 0.28 59 1010.7
20260503071308 17 338 1.6 4.8 0.00 0.28 0.28 59 1010.6
20260503070809 17 315 1.6 8.0 0.00 0.28 0.28 58 1010.7
20260503070307 17 290 1.6 4.8 0.00 0.28 0.28 57 1010.5
20260503060307 19 293 4.8 12.9 0.00 0.28 0.28 49 1010.6
20260503054807 20 288 8.0 20.9 0.00 0.28 0.28 45 1010.4
20260503054308 21 270 1.6 11.3 0.00 0.28 0.28 42 1010.4
20260503053308 21 112 3.2 11.3 0.00 0.28 0.28 41 1010.3
20260503052807 21 289 1.6 11.3 0.00 0.28 0.28 42 1010.2
20260503052307 21 269 3.2 9.7 0.00 0.28 0.28 43 1010.3
20260503051806 21 251 4.8 9.7 0.00 0.28 0.28 42 1010.2
20260503051307 20 156 4.8 8.0 0.00 0.28 0.28 45 1010.2
20260503050308 19 316 1.6 4.8 0.00 0.28 0.28 61 1010.1
20260503045807 19 254 1.6 3.2 0.00 0.28 0.28 63 1010.3
20260503045308 18 292 1.6 4.8 0.00 0.28 0.28 65 1010.3
20260503042808 20 293 3.2 9.7 0.00 0.28 0.28 65 1010.1
20260503042307 20 0 3.2 8.0 0.00 0.28 0.28 65 1010.0
20260503041806 20 312 3.2 9.7 0.00 0.28 0.28 65 1009.9
20260503041307 18 65 3.2 8.0 0.00 0.28 0.28 68 1009.8
20260503040806 18 336 1.6 8.0 0.00 0.28 0.28 70 1010.0
20260503035807 18 232 1.6 4.8 0.00 0.28 0.28 70 1009.9
20260503034807 18 1 1.6 8.0 0.00 0.28 0.28 71 1010.3
20260503034308 18 249 1.6 4.8 0.00 0.28 0.28 72 1010.4
20260503033807 18 269 1.6 4.8 0.00 0.28 0.28 72 1010.3
20260503033307 18 315 1.6 4.8 0.00 0.28 0.28 73 1010.3
20260503032808 18 248 1.6 3.2 0.00 0.28 0.28 74 1010.4
20260503032307 18 359 1.6 8.0 0.00 0.28 0.28 74 1010.3
20260503031807 18 203 1.6 8.0 0.00 0.28 0.28 74 1010.1
20260503031308 18 0 1.6 4.8 0.00 0.28 0.28 74 1010.1
20260503030807 18 270 1.6 4.8 0.00 0.28 0.28 74 1010.3
20260503030307 18 312 1.6 4.8 0.00 0.28 0.28 75 1010.3
20260503025807 18 249 1.6 9.7 0.00 0.28 0.28 75 1010.3
20260503025307 18 289 3.2 12.9 0.00 0.28 0.28 76 1010.3
20260503024808 18 270 4.8 12.9 0.00 0.28 0.28 74 1010.4
20260503024307 19 45 3.2 11.3 0.00 0.28 0.28 76 1010.5
20260503023807 19 66 3.2 14.5 0.00 0.28 0.28 78 1010.2
20260503023307 19 19 8.0 14.5 0.00 0.28 0.28 78 1010.2
20260503022308 19 359 6.4 19.3 0.00 0.28 0.28 79 1010.1
20260503021807 19 0 3.2 20.9 0.00 0.28 0.28 79 1010.3
20260503021307 19 340 11.3 20.9 0.00 0.28 0.28 78 1010.1